| time (UTC) | temp F | wind direction | speed knots | gust knots | rain 1hr in | rain 24hr in | rain mn in | humidity % | barometer mb |
| 20260906040131 | 76 | 344 | 0.0 | 0.0 | 0.00 | 0.00 | 0.00 | 96 | 1011.2 |
| 20260906040111 | 76 | 344 | 0.0 | 0.0 | 0.00 | 0.00 | 0.00 | 96 | 1011.0 |
| 20260906035541 | 76 | 344 | 0.0 | 0.0 | 0.00 | 0.00 | 0.00 | 96 | 1011.0 |
| 20260906034509 | 77 | 344 | 0.0 | 0.0 | 0.00 | 0.00 | 0.00 | 96 | 1011.1 |
| 20260906034008 | 77 | 344 | 0.0 | 0.0 | 0.00 | 0.00 | 0.00 | 96 | 1011.2 |
| 20260906033757 | 77 | 344 | 0.0 | 0.0 | 0.00 | 0.00 | 0.00 | 96 | 1011.2 |
| 20260906033010 | 77 | 344 | 0.0 | 0.0 | 0.00 | 0.00 | 0.00 | 96 | 1011.2 |
| 20260906032510 | 77 | 344 | 0.0 | 0.0 | 0.00 | 0.00 | 0.00 | 96 | 1011.1 |
| 20260906032009 | 77 | 344 | 0.0 | 0.0 | 0.00 | 0.00 | 0.00 | 96 | 1011.1 |
| 20260906031508 | 77 | 344 | 0.0 | 0.0 | 0.00 | 0.00 | 0.00 | 96 | 1011.0 |
| 20260906031009 | 77 | 344 | 0.0 | 0.0 | 0.00 | 0.00 | 0.00 | 96 | 1011.1 |
| 20260906030507 | 77 | 344 | 0.0 | 0.0 | 0.00 | 0.00 | 0.00 | 96 | 1011.1 |
| 20260906030010 | 77 | 344 | 0.0 | 0.0 | 0.00 | 0.00 | 0.00 | 96 | 1011.2 |
| 20260906025758 | 77 | 344 | 0.0 | 0.0 | 0.00 | 0.00 | 0.00 | 96 | 1011.2 |
| 20260906025007 | 77 | 344 | 0.0 | 0.0 | 0.00 | 0.00 | 0.00 | 96 | 1011.1 |
| 20260906024507 | 77 | 344 | 0.0 | 0.0 | 0.00 | 0.00 | 0.00 | 96 | 1011.0 |
| 20260906024008 | 77 | 344 | 0.0 | 0.0 | 0.00 | 0.00 | 0.00 | 96 | 1010.9 |
| 20260906023508 | 77 | 344 | 0.0 | 0.0 | 0.00 | 0.00 | 0.00 | 96 | 1010.9 |
| 20260906023008 | 78 | 344 | 0.0 | 0.0 | 0.00 | 0.00 | 0.00 | 96 | 1010.8 |
| 20260906022507 | 78 | 344 | 0.0 | 0.0 | 0.00 | 0.00 | 0.00 | 96 | 1010.7 |
| 20260906022008 | 78 | 344 | 0.0 | 0.0 | 0.00 | 0.00 | 0.00 | 95 | 1010.7 |
| 20260906021507 | 77 | 344 | 0.0 | 0.0 | 0.00 | 0.00 | 0.00 | 95 | 1010.5 |
| 20260906021003 | 78 | 344 | 0.0 | 0.0 | 0.00 | 0.00 | 0.00 | 95 | 1010.4 |
| 20260906020504 | 78 | 344 | 0.0 | 0.0 | 0.00 | 0.00 | 0.00 | 95 | 1010.3 |
| 20260906020004 | 78 | 344 | 0.0 | 0.0 | 0.00 | 0.00 | 0.00 | 95 | 1010.4 |
| 20260906015748 | 78 | 344 | 0.0 | 0.0 | 0.00 | 0.00 | 0.00 | 95 | 1010.2 |
| 20260906015004 | 78 | 344 | 0.0 | 0.0 | 0.00 | 0.00 | 0.00 | 95 | 1010.2 |
| 20260906014504 | 78 | 344 | 0.0 | 0.0 | 0.00 | 0.00 | 0.00 | 95 | 1010.3 |
| 20260906014002 | 78 | 344 | 0.0 | 0.0 | 0.00 | 0.00 | 0.00 | 94 | 1010.3 |
| 20260906013502 | 78 | 344 | 0.0 | 0.0 | 0.00 | 0.00 | 0.00 | 94 | 1010.2 |
| 20260906013248 | 78 | 344 | 0.0 | 0.0 | 0.00 | 0.00 | 0.00 | 94 | 1010.2 |
| 20260906012502 | 79 | 344 | 0.0 | 0.0 | 0.00 | 0.00 | 0.00 | 94 | 1010.1 |
| 20260906012002 | 79 | 344 | 0.0 | 0.0 | 0.00 | 0.00 | 0.00 | 94 | 1010.1 |
| 20260906011504 | 79 | 344 | 0.0 | 0.0 | 0.00 | 0.00 | 0.00 | 94 | 1010.2 |
| 20260906011004 | 79 | 344 | 0.0 | 0.0 | 0.00 | 0.00 | 0.00 | 93 | 1010.3 |
| 20260906010504 | 79 | 344 | 0.0 | 0.0 | 0.00 | 0.00 | 0.00 | 93 | 1010.2 |
| 20260906010003 | 79 | 344 | 0.0 | 0.0 | 0.00 | 0.00 | 0.00 | 93 | 1010.2 |
| 20260906005753 | 80 | 344 | 0.0 | 0.0 | 0.00 | 0.00 | 0.00 | 93 | 1010.3 |
| 20260906005004 | 80 | 344 | 0.0 | 0.0 | 0.00 | 0.00 | 0.00 | 92 | 1010.3 |
| 20260906004503 | 80 | 344 | 0.0 | 0.0 | 0.00 | 0.00 | 0.00 | 92 | 1010.3 |
| 20260906004254 | 80 | 344 | 0.0 | 0.0 | 0.00 | 0.00 | 0.00 | 92 | 1010.2 |
| 20260906003741 | 80 | 344 | 0.0 | 0.0 | 0.00 | 0.00 | 0.00 | 91 | 1010.1 |
| 20260906003003 | 81 | 344 | 0.0 | 0.0 | 0.00 | 0.00 | 0.00 | 91 | 1010.2 |
| 20260906002503 | 81 | 344 | 0.0 | 0.0 | 0.00 | 0.00 | 0.00 | 90 | 1010.0 |
| 20260906002003 | 81 | 344 | 0.0 | 0.0 | 0.00 | 0.00 | 0.00 | 90 | 1010.1 |
| 20260906001503 | 81 | 344 | 0.0 | 0.0 | 0.00 | 0.00 | 0.00 | 90 | 1010.2 |
| 20260906001003 | 82 | 344 | 0.0 | 0.0 | 0.00 | 0.00 | 0.00 | 89 | 1010.2 |
| 20260906000503 | 82 | 344 | 0.0 | 0.0 | 0.00 | 0.00 | 0.00 | 89 | 1010.3 |
| 20260906000004 | 82 | 344 | 0.0 | 0.0 | 0.00 | 0.00 | 0.00 | 89 | 1010.4 |
| 20260905235504 | 82 | 344 | 0.0 | 0.0 | 0.00 | 0.00 | 0.00 | 89 | 1010.4 |
| 20260905235247 | 83 | 345 | 0.0 | 0.0 | 0.00 | 0.00 | 0.00 | 88 | 1010.3 |
| 20260905234506 | 83 | 345 | 0.0 | 0.9 | 0.00 | 0.00 | 0.00 | 88 | 1010.4 |
| 20260905234253 | 83 | 345 | 0.0 | 0.9 | 0.00 | 0.00 | 0.00 | 88 | 1010.4 |
| 20260905233504 | 83 | 220 | 0.0 | 0.9 | 0.00 | 0.00 | 0.00 | 89 | 1010.4 |
| 20260905233002 | 83 | 220 | 0.0 | 0.0 | 0.00 | 0.00 | 0.00 | 88 | 1010.3 |
| 20260905232849 | 84 | 220 | 0.0 | 0.0 | 0.00 | 0.00 | 0.00 | 87 | 1010.2 |
| 20260905232844 | 84 | 220 | 0.0 | 0.0 | 0.00 | 0.00 | 0.00 | 88 | 1010.1 |
| 20260905231504 | 84 | 220 | 0.0 | 0.0 | 0.00 | 0.00 | 0.00 | 88 | 1010.3 |
| 20260905231003 | 84 | 220 | 0.0 | 0.0 | 0.00 | 0.00 | 0.00 | 87 | 1010.2 |
| 20260905230502 | 84 | 220 | 0.0 | 0.0 | 0.00 | 0.00 | 0.00 | 87 | 1010.2 |
| 20260905230003 | 84 | 220 | 0.0 | 0.0 | 0.00 | 0.00 | 0.00 | 86 | 1010.2 |
| 20260905225503 | 84 | 220 | 0.0 | 0.0 | 0.00 | 0.00 | 0.00 | 87 | 1010.2 |
| 20260905225251 | 84 | 220 | 0.0 | 0.0 | 0.00 | 0.00 | 0.00 | 85 | 1010.2 |
| 20260905224501 | 84 | 220 | 0.0 | 0.0 | 0.00 | 0.00 | 0.00 | 85 | 1010.1 |
| 20260905224003 | 84 | 220 | 0.0 | 0.9 | 0.00 | 0.00 | 0.00 | 85 | 1010.0 |
| 20260905223502 | 84 | 220 | 0.0 | 0.9 | 0.00 | 0.00 | 0.00 | 86 | 1010.0 |
| 20260905223256 | 84 | 99 | 0.0 | 0.9 | 0.00 | 0.00 | 0.00 | 86 | 1010.1 |
| 20260905222751 | 84 | 99 | 0.0 | 0.9 | 0.00 | 0.00 | 0.00 | 85 | 1010.2 |
| 20260905222255 | 84 | 99 | 0.0 | 0.0 | 0.00 | 0.00 | 0.00 | 85 | 1010.3 |
| 20260905221502 | 84 | 99 | 0.0 | 0.9 | 0.00 | 0.00 | 0.00 | 84 | 1010.5 |
| 20260905221002 | 85 | 99 | 0.0 | 0.9 | 0.00 | 0.00 | 0.00 | 84 | 1010.6 |
| 20260905220502 | 85 | 99 | 0.0 | 0.9 | 0.00 | 0.00 | 0.00 | 82 | 1010.7 |
| 20260905220000 | 86 | 99 | 0.0 | 0.0 | 0.00 | 0.00 | 0.00 | 81 | 1010.4 |
| 20260905215502 | 86 | 103 | 0.0 | 1.7 | 0.00 | 0.00 | 0.00 | 80 | 1010.4 |
| 20260905215001 | 87 | 83 | 0.0 | 1.7 | 0.00 | 0.00 | 0.00 | 81 | 1010.6 |
| 20260905214501 | 87 | 141 | 0.0 | 0.0 | 0.00 | 0.00 | 0.00 | 80 | 1010.4 |
| 20260905214000 | 87 | 75 | 0.0 | 0.0 | 0.00 | 0.00 | 0.00 | 79 | 1010.4 |
| 20260905213459 | 88 | 330 | 0.0 | 0.0 | 0.00 | 0.00 | 0.00 | 79 | 1010.5 |
| 20260905213056 | 89 | 72 | 0.0 | 0.0 | 0.00 | 0.00 | 0.00 | 77 | 1010.5 |
| 20260905213034 | 89 | 158 | 0.0 | 0.0 | 0.00 | 0.00 | 0.00 | 78 | 1010.6 |
| 20260905212001 | 89 | 49 | 0.0 | 1.7 | 0.00 | 0.00 | 0.00 | 76 | 1010.5 |
| 20260905211459 | 89 | 310 | 0.0 | 1.7 | 0.00 | 0.00 | 0.00 | 77 | 1010.7 |
| 20260905211256 | 90 | 200 | 0.0 | 0.9 | 0.00 | 0.00 | 0.00 | 78 | 1010.7 |
| 20260905210500 | 89 | 197 | 0.0 | 0.9 | 0.00 | 0.00 | 0.00 | 77 | 1010.6 |
| 20260905210001 | 89 | 233 | 0.0 | 0.0 | 0.00 | 0.00 | 0.00 | 78 | 1010.6 |
| 20260905205459 | 89 | 228 | 0.0 | 0.0 | 0.00 | 0.00 | 0.00 | 76 | 1010.5 |
| 20260905205001 | 89 | 202 | 0.0 | 0.0 | 0.00 | 0.00 | 0.00 | 75 | 1010.4 |
| 20260905204459 | 89 | 133 | 0.0 | 0.0 | 0.00 | 0.00 | 0.00 | 75 | 1010.5 |
| 20260905203958 | 88 | 245 | 0.0 | 0.0 | 0.00 | 0.00 | 0.00 | 77 | 1010.5 |
| 20260905203500 | 89 | 245 | 0.0 | 0.9 | 0.00 | 0.00 | 0.00 | 76 | 1010.6 |
| 20260905202959 | 89 | 7 | 0.0 | 0.9 | 0.00 | 0.00 | 0.00 | 76 | 1010.5 |
| 20260905202459 | 88 | 223 | 0.0 | 0.0 | 0.00 | 0.00 | 0.00 | 77 | 1010.6 |
| 20260905201959 | 88 | 199 | 0.0 | 0.0 | 0.00 | 0.00 | 0.00 | 78 | 1010.5 |
| 20260905201501 | 87 | 202 | 0.0 | 0.0 | 0.00 | 0.00 | 0.00 | 79 | 1010.6 |
| 20260905200957 | 87 | 200 | 0.0 | 0.0 | 0.00 | 0.00 | 0.00 | 78 | 1010.8 |
| 20260905200458 | 88 | 268 | 0.0 | 0.0 | 0.00 | 0.00 | 0.00 | 80 | 1010.7 |
| 20260905195959 | 88 | 268 | 0.0 | 0.0 | 0.00 | 0.00 | 0.00 | 78 | 1010.7 |
| 20260905195546 | 89 | 268 | 0.0 | 0.0 | 0.00 | 0.00 | 0.00 | 77 | 1010.8 |
| 20260905195528 | 88 | 268 | 0.0 | 0.0 | 0.00 | 0.00 | 0.00 | 78 | 1010.8 |
| 20260905194457 | 89 | 268 | 0.0 | 0.9 | 0.00 | 0.00 | 0.00 | 79 | 1011.0 |
| 20260905193959 | 89 | 274 | 0.0 | 0.9 | 0.00 | 0.00 | 0.00 | 76 | 1011.0 |
| 20260905193458 | 89 | 278 | 0.0 | 0.9 | 0.00 | 0.00 | 0.00 | 74 | 1011.0 |
| 20260905192957 | 90 | 241 | 0.0 | 1.7 | 0.00 | 0.00 | 0.00 | 74 | 1011.2 |
| 20260905192457 | 91 | 235 | 0.0 | 1.7 | 0.00 | 0.00 | 0.00 | 73 | 1011.2 |
| 20260905191956 | 92 | 199 | 0.9 | 1.7 | 0.00 | 0.00 | 0.00 | 72 | 1011.3 |
| 20260905191457 | 91 | 123 | 0.9 | 1.7 | 0.00 | 0.00 | 0.00 | 71 | 1011.3 |
| 20260905190958 | 90 | 130 | 0.0 | 1.7 | 0.00 | 0.01 | 0.00 | 72 | 1011.4 |
| 20260905190457 | 90 | 240 | 0.0 | 1.7 | 0.00 | 0.01 | 0.00 | 74 | 1011.5 |
| 20260905185956 | 89 | 241 | 0.0 | 1.7 | 0.00 | 0.01 | 0.00 | 75 | 1011.5 |
| 20260905185456 | 89 | 159 | 0.0 | 0.9 | 0.00 | 0.02 | 0.00 | 75 | 1011.6 |
| 20260905184956 | 89 | 73 | 0.0 | 0.9 | 0.00 | 0.02 | 0.00 | 74 | 1011.7 |
| 20260905184456 | 89 | 144 | 0.0 | 3.5 | 0.00 | 0.02 | 0.00 | 74 | 1011.7 |
| 20260905183957 | 90 | 124 | 0.0 | 3.5 | 0.00 | 0.03 | 0.00 | 71 | 1011.7 |
| 20260905183748 | 90 | 264 | 0.9 | 2.6 | 0.00 | 0.04 | 0.00 | 74 | 1011.9 |
| 20260905182958 | 89 | 75 | 0.0 | 0.9 | 0.00 | 0.05 | 0.00 | 76 | 1011.9 |
| 20260905182455 | 89 | 111 | 0.0 | 2.6 | 0.00 | 0.05 | 0.00 | 74 | 1012.0 |
| 20260905181955 | 90 | 83 | 0.9 | 2.6 | 0.00 | 0.05 | 0.00 | 72 | 1012.1 |
| 20260905181455 | 89 | 244 | 0.0 | 1.7 | 0.00 | 0.05 | 0.00 | 73 | 1012.0 |
| 20260905180956 | 89 | 355 | 0.0 | 1.7 | 0.00 | 0.06 | 0.00 | 74 | 1012.2 |
| 20260905180455 | 89 | 223 | 0.0 | 2.6 | 0.00 | 0.06 | 0.00 | 76 | 1012.3 |
| 20260905175956 | 88 | 3 | 0.0 | 2.6 | 0.00 | 0.06 | 0.00 | 76 | 1012.4 |
| 20260905175456 | 87 | 285 | 0.9 | 1.7 | 0.00 | 0.06 | 0.00 | 75 | 1012.4 |
| 20260905174955 | 87 | 240 | 0.0 | 0.9 | 0.00 | 0.06 | 0.00 | 79 | 1012.5 |
| 20260905174456 | 86 | 320 | 0.0 | 0.0 | 0.00 | 0.06 | 0.00 | 80 | 1012.7 |
| 20260905173955 | 86 | 320 | 0.0 | 0.0 | 0.00 | 0.06 | 0.00 | 80 | 1012.7 |
| 20260905173454 | 86 | 320 | 0.0 | 0.9 | 0.00 | 0.06 | 0.00 | 81 | 1012.7 |
| 20260905172954 | 86 | 347 | 0.0 | 0.9 | 0.00 | 0.06 | 0.00 | 79 | 1012.8 |
| 20260905172747 | 86 | 271 | 0.0 | 0.9 | 0.00 | 0.06 | 0.00 | 83 | 1012.8 |
| 20260905171955 | 86 | 274 | 0.0 | 0.9 | 0.00 | 0.06 | 0.00 | 81 | 1012.7 |
| 20260905171543 | 86 | 243 | 0.0 | 0.9 | 0.00 | 0.06 | 0.00 | 80 | 1012.8 |
| 20260905171526 | 86 | 245 | 0.0 | 0.9 | 0.00 | 0.06 | 0.00 | 81 | 1012.8 |
| 20260905170746 | 86 | 189 | 0.0 | 0.0 | 0.00 | 0.06 | 0.00 | 84 | 1012.8 |
| 20260905165954 | 84 | 298 | 0.0 | 0.0 | 0.00 | 0.06 | 0.00 | 85 | 1012.9 |
| 20260905165448 | 84 | 298 | 0.0 | 3.5 | 0.00 | 0.06 | 0.00 | 85 | 1012.9 |
| 20260905165237 | 84 | 303 | 0.9 | 3.5 | 0.00 | 0.06 | 0.00 | 85 | 1013.0 |
| 20260905164448 | 84 | 309 | 0.0 | 2.6 | 0.00 | 0.06 | 0.00 | 84 | 1013.0 |
| 20260905163948 | 85 | 271 | 0.0 | 2.6 | 0.00 | 0.06 | 0.00 | 82 | 1013.1 |
| 20260905163446 | 85 | 272 | 0.0 | 1.7 | 0.00 | 0.06 | 0.00 | 82 | 1013.1 |
| 20260905162947 | 86 | 272 | 0.0 | 1.7 | 0.00 | 0.06 | 0.00 | 80 | 1013.1 |
| 20260905162446 | 87 | 334 | 0.0 | 1.7 | 0.00 | 0.06 | 0.00 | 79 | 1013.1 |
| 20260905161946 | 87 | 69 | 0.0 | 1.7 | 0.00 | 0.06 | 0.00 | 78 | 1013.1 |
| 20260905161447 | 86 | 282 | 0.0 | 0.9 | 0.00 | 0.06 | 0.00 | 80 | 1013.2 |
| 20260905160946 | 86 | 164 | 0.0 | 0.9 | 0.00 | 0.06 | 0.00 | 81 | 1013.2 |
| 20260905160445 | 86 | 133 | 0.0 | 0.9 | 0.00 | 0.06 | 0.00 | 82 | 1013.1 |
| 20260905160235 | 85 | 94 | 0.0 | 0.9 | 0.00 | 0.06 | 0.00 | 80 | 1013.2 |
| 20260905155446 | 85 | 258 | 0.0 | 0.9 | 0.00 | 0.06 | 0.00 | 83 | 1013.2 |
| 20260905154947 | 85 | 117 | 0.0 | 2.6 | 0.00 | 0.06 | 0.00 | 84 | 1013.2 |
| 20260905154446 | 85 | 213 | 0.9 | 2.6 | 0.00 | 0.06 | 0.00 | 83 | 1013.2 |
| 20260905153945 | 85 | 353 | 0.0 | 4.3 | 0.00 | 0.06 | 0.00 | 86 | 1013.2 |
| 20260905153739 | 84 | 157 | 1.7 | 4.3 | 0.00 | 0.06 | 0.00 | 85 | 1013.2 |
| 20260905152945 | 84 | 259 | 0.0 | 1.7 | 0.00 | 0.06 | 0.00 | 87 | 1013.2 |
| 20260905152446 | 83 | 234 | 0.0 | 1.7 | 0.00 | 0.06 | 0.00 | 90 | 1013.3 |
| 20260905151945 | 82 | 78 | 0.0 | 0.9 | 0.00 | 0.06 | 0.00 | 88 | 1013.2 |
| 20260905151446 | 83 | 78 | 0.0 | 0.9 | 0.00 | 0.06 | 0.00 | 88 | 1013.1 |
| 20260905150946 | 83 | 107 | 0.0 | 0.9 | 0.00 | 0.06 | 0.00 | 89 | 1013.2 |
| 20260905150443 | 83 | 103 | 0.0 | 0.9 | 0.00 | 0.06 | 0.00 | 89 | 1013.2 |
| 20260905145945 | 83 | 345 | 0.0 | 0.9 | 0.00 | 0.06 | 0.00 | 90 | 1013.2 |
| 20260905145443 | 82 | 241 | 0.0 | 0.9 | 0.00 | 0.06 | 0.00 | 89 | 1013.2 |
| 20260905144945 | 83 | 231 | 0.0 | 0.9 | 0.00 | 0.06 | 0.00 | 88 | 1013.1 |
| 20260905144443 | 83 | 110 | 0.0 | 0.9 | 0.00 | 0.06 | 0.00 | 88 | 1013.1 |
| 20260905143944 | 83 | 248 | 0.0 | 0.9 | 0.00 | 0.06 | 0.00 | 88 | 1013.2 |
| 20260905143445 | 83 | 282 | 0.0 | 0.9 | 0.00 | 0.06 | 0.00 | 89 | 1013.2 |
| 20260905142943 | 83 | 283 | 0.0 | 0.9 | 0.00 | 0.06 | 0.00 | 87 | 1013.2 |
| 20260905142443 | 84 | 289 | 0.0 | 0.9 | 0.00 | 0.06 | 0.00 | 88 | 1013.1 |
| 20260905141943 | 83 | 92 | 0.0 | 0.9 | 0.00 | 0.06 | 0.00 | 89 | 1013.1 |
| 20260905141443 | 83 | 121 | 0.0 | 0.9 | 0.00 | 0.06 | 0.00 | 91 | 1013.1 |
| 20260905140943 | 82 | 123 | 0.0 | 0.9 | 0.00 | 0.06 | 0.00 | 93 | 1013.1 |
| 20260905140444 | 81 | 272 | 0.0 | 2.6 | 0.00 | 0.06 | 0.00 | 94 | 1013.1 |
| 20260905140236 | 80 | 90 | 0.0 | 2.6 | 0.00 | 0.06 | 0.00 | 95 | 1013.1 |
| 20260905135442 | 80 | 72 | 0.9 | 2.6 | 0.00 | 0.06 | 0.00 | 96 | 1013.1 |
| 20260905135237 | 79 | 109 | 0.0 | 0.9 | 0.00 | 0.06 | 0.00 | 97 | 1013.1 |
| 20260905134732 | 79 | 117 | 0.0 | 0.9 | 0.00 | 0.06 | 0.00 | 98 | 1013.1 |
| 20260905134236 | 78 | 116 | 0.0 | 0.9 | 0.00 | 0.06 | 0.00 | 98 | 1013.2 |
| 20260905133443 | 78 | 121 | 0.0 | 0.9 | 0.00 | 0.06 | 0.00 | 98 | 1013.0 |
| 20260905132943 | 77 | 121 | 0.0 | 0.9 | 0.00 | 0.06 | 0.00 | 98 | 1013.1 |
| 20260905132444 | 77 | 121 | 0.0 | 0.9 | 0.00 | 0.07 | 0.00 | 98 | 1013.0 |
| 20260905132224 | 76 | 121 | 0.0 | 0.9 | 0.00 | 0.07 | 0.00 | 98 | 1013.0 |
| 20260905131441 | 76 | 123 | 0.0 | 0.0 | 0.00 | 0.07 | 0.00 | 98 | 1012.9 |
| 20260905130943 | 75 | 92 | 0.0 | 0.9 | 0.00 | 0.07 | 0.00 | 98 | 1012.9 |
| 20260905130441 | 75 | 92 | 0.0 | 0.9 | 0.00 | 0.07 | 0.00 | 98 | 1012.8 |
| 20260905125943 | 75 | 80 | 0.0 | 0.9 | 0.00 | 0.07 | 0.00 | 98 | 1012.9 |
| 20260905125531 | 74 | 58 | 0.0 | 0.0 | 0.00 | 0.07 | 0.00 | 98 | 1012.7 |
| 20260905125511 | 75 | 58 | 0.0 | 0.0 | 0.00 | 0.07 | 0.00 | 98 | 1012.7 |
| 20260905124442 | 74 | 58 | 0.0 | 0.0 | 0.00 | 0.07 | 0.00 | 98 | 1012.8 |
| 20260905124229 | 74 | 58 | 0.0 | 0.0 | 0.00 | 0.07 | 0.00 | 98 | 1012.7 |
| 20260905123443 | 73 | 58 | 0.0 | 0.0 | 0.00 | 0.07 | 0.00 | 98 | 1012.6 |
| 20260905122940 | 73 | 58 | 0.0 | 0.0 | 0.00 | 0.07 | 0.00 | 98 | 1012.5 |
| 20260905122442 | 73 | 58 | 0.0 | 0.0 | 0.00 | 0.07 | 0.00 | 98 | 1012.5 |
| 20260905121941 | 73 | 58 | 0.0 | 0.0 | 0.00 | 0.07 | 0.00 | 98 | 1012.4 |
| 20260905121440 | 73 | 58 | 0.0 | 0.0 | 0.00 | 0.07 | 0.00 | 98 | 1012.4 |
| 20260905120940 | 73 | 58 | 0.0 | 0.0 | 0.00 | 0.07 | 0.00 | 98 | 1012.4 |
| 20260905120441 | 73 | 58 | 0.0 | 0.0 | 0.00 | 0.07 | 0.00 | 98 | 1012.3 |
| 20260905115941 | 73 | 58 | 0.0 | 0.0 | 0.00 | 0.07 | 0.00 | 98 | 1012.3 |
| 20260905115441 | 73 | 58 | 0.0 | 0.0 | 0.00 | 0.07 | 0.00 | 98 | 1012.2 |
| 20260905114941 | 73 | 58 | 0.0 | 0.0 | 0.00 | 0.07 | 0.00 | 98 | 1012.4 |
| 20260905114440 | 73 | 58 | 0.0 | 0.0 | 0.00 | 0.07 | 0.00 | 98 | 1012.3 |
| 20260905113939 | 73 | 58 | 0.0 | 0.0 | 0.00 | 0.07 | 0.00 | 98 | 1012.2 |
| 20260905113439 | 73 | 58 | 0.0 | 0.0 | 0.00 | 0.07 | 0.00 | 98 | 1012.1 |
| 20260905112941 | 73 | 58 | 0.0 | 0.0 | 0.00 | 0.07 | 0.00 | 98 | 1012.1 |
| 20260905112439 | 73 | 58 | 0.0 | 0.0 | 0.00 | 0.07 | 0.00 | 98 | 1012.0 |
| 20260905111940 | 73 | 58 | 0.0 | 0.0 | 0.00 | 0.07 | 0.00 | 98 | 1011.9 |
| 20260905111440 | 73 | 58 | 0.0 | 0.0 | 0.00 | 0.07 | 0.00 | 98 | 1012.0 |
| 20260905111232 | 73 | 58 | 0.0 | 0.0 | 0.00 | 0.07 | 0.00 | 98 | 1012.0 |
| 20260905110438 | 73 | 58 | 0.0 | 0.0 | 0.00 | 0.07 | 0.00 | 98 | 1012.1 |
| 20260905110221 | 73 | 58 | 0.0 | 0.0 | 0.00 | 0.07 | 0.00 | 98 | 1012.1 |
| 20260905105527 | 73 | 58 | 0.0 | 0.0 | 0.00 | 0.07 | 0.00 | 98 | 1012.0 |
| 20260905105508 | 73 | 58 | 0.0 | 0.0 | 0.00 | 0.07 | 0.00 | 98 | 1012.1 |
| 20260905104440 | 73 | 58 | 0.0 | 0.0 | 0.00 | 0.07 | 0.00 | 98 | 1012.1 |
| 20260905103938 | 73 | 58 | 0.0 | 0.0 | 0.00 | 0.07 | 0.00 | 98 | 1012.2 |
| 20260905103439 | 73 | 58 | 0.0 | 0.0 | 0.00 | 0.07 | 0.00 | 98 | 1012.2 |
| 20260905102940 | 73 | 58 | 0.0 | 0.0 | 0.00 | 0.07 | 0.00 | 98 | 1012.2 |
| 20260905102438 | 73 | 58 | 0.0 | 0.0 | 0.00 | 0.07 | 0.00 | 98 | 1012.2 |
| 20260905101939 | 73 | 58 | 0.0 | 0.0 | 0.00 | 0.07 | 0.00 | 98 | 1012.1 |
| 20260905101729 | 73 | 58 | 0.0 | 0.0 | 0.00 | 0.07 | 0.00 | 98 | 1012.2 |
| 20260905101234 | 73 | 58 | 0.0 | 0.0 | 0.00 | 0.07 | 0.00 | 98 | 1012.2 |
| 20260905100437 | 73 | 58 | 0.0 | 0.0 | 0.00 | 0.07 | 0.00 | 98 | 1012.1 |
| 20260905095937 | 73 | 58 | 0.0 | 0.0 | 0.00 | 0.07 | 0.00 | 98 | 1012.2 |
| 20260905095438 | 73 | 58 | 0.0 | 0.0 | 0.00 | 0.07 | 0.00 | 98 | 1012.3 |
| 20260905094938 | 73 | 58 | 0.0 | 0.0 | 0.00 | 0.07 | 0.00 | 98 | 1012.2 |
| 20260905094439 | 73 | 58 | 0.0 | 0.0 | 0.00 | 0.07 | 0.00 | 98 | 1012.1 |
| 20260905093938 | 73 | 58 | 0.0 | 0.0 | 0.00 | 0.07 | 0.00 | 98 | 1012.0 |
| 20260905093438 | 73 | 58 | 0.0 | 0.0 | 0.00 | 0.07 | 0.00 | 98 | 1011.9 |
| 20260905092936 | 73 | 58 | 0.0 | 0.0 | 0.00 | 0.07 | 0.00 | 98 | 1011.9 |
| 20260905092439 | 73 | 58 | 0.0 | 0.0 | 0.00 | 0.07 | 0.00 | 98 | 1011.9 |
| 20260905091936 | 73 | 58 | 0.0 | 0.0 | 0.00 | 0.07 | 0.00 | 98 | 1011.8 |
| 20260905091436 | 73 | 58 | 0.0 | 0.0 | 0.00 | 0.07 | 0.00 | 98 | 1011.9 |
| 20260905091030 | 73 | 58 | 0.0 | 0.0 | 0.00 | 0.07 | 0.00 | 98 | 1011.8 |
| 20260905091011 | 73 | 58 | 0.0 | 0.0 | 0.00 | 0.07 | 0.00 | 98 | 1011.8 |
| 20260905085938 | 73 | 58 | 0.0 | 0.0 | 0.00 | 0.07 | 0.00 | 98 | 1011.9 |
| 20260905085437 | 73 | 58 | 0.0 | 0.0 | 0.00 | 0.07 | 0.00 | 98 | 1012.0 |
| 20260905084937 | 73 | 58 | 0.0 | 0.0 | 0.00 | 0.07 | 0.00 | 98 | 1012.0 |
| 20260905084436 | 73 | 58 | 0.0 | 0.0 | 0.00 | 0.07 | 0.00 | 98 | 1011.9 |
| 20260905084230 | 73 | 58 | 0.0 | 0.0 | 0.00 | 0.07 | 0.00 | 98 | 1011.9 |
| 20260905083435 | 73 | 58 | 0.0 | 0.0 | 0.00 | 0.07 | 0.00 | 98 | 1011.8 |
| 20260905083232 | 73 | 58 | 0.0 | 0.0 | 0.00 | 0.07 | 0.00 | 98 | 1011.9 |
| 20260905082437 | 73 | 58 | 0.0 | 0.0 | 0.00 | 0.07 | 0.00 | 98 | 1011.8 |
| 20260905081935 | 73 | 58 | 0.0 | 0.0 | 0.00 | 0.07 | 0.00 | 98 | 1011.8 |
| 20260905081436 | 73 | 58 | 0.0 | 0.0 | 0.00 | 0.07 | 0.00 | 98 | 1011.8 |
| 20260905080934 | 73 | 58 | 0.0 | 0.0 | 0.00 | 0.07 | 0.00 | 98 | 1011.8 |
| 20260905080436 | 73 | 58 | 0.0 | 0.0 | 0.00 | 0.07 | 0.00 | 98 | 1011.8 |
| 20260905075935 | 73 | 58 | 0.0 | 0.0 | 0.00 | 0.07 | 0.00 | 98 | 1011.7 |
| 20260905075435 | 73 | 58 | 0.0 | 0.0 | 0.00 | 0.07 | 0.00 | 98 | 1011.7 |
| 20260905074934 | 73 | 58 | 0.0 | 0.0 | 0.00 | 0.07 | 0.00 | 98 | 1011.7 |
| 20260905074435 | 73 | 58 | 0.0 | 0.0 | 0.00 | 0.07 | 0.00 | 98 | 1011.6 |
| 20260905073934 | 73 | 58 | 0.0 | 0.0 | 0.00 | 0.07 | 0.00 | 98 | 1011.7 |
| 20260905073722 | 73 | 58 | 0.0 | 0.0 | 0.00 | 0.07 | 0.00 | 98 | 1011.7 |
| 20260905073222 | 73 | 58 | 0.0 | 0.0 | 0.00 | 0.07 | 0.00 | 97 | 1011.6 |
| 20260905072605 | 74 | 58 | 0.0 | 0.0 | 0.00 | 0.07 | 0.00 | 97 | 1011.6 |
| 20260905072532 | 73 | 58 | 0.0 | 0.0 | 0.00 | 0.07 | 0.00 | 97 | 1011.6 |
| 20260905072305 | 73 | 58 | 0.0 | 0.0 | 0.00 | 0.07 | 0.00 | 97 | 1011.5 |
| 20260905070935 | 74 | 58 | 0.0 | 0.0 | 0.00 | 0.07 | 0.00 | 98 | 1011.6 |
| 20260905070433 | 74 | 58 | 0.0 | 0.0 | 0.00 | 0.08 | 0.00 | 98 | 1011.7 |
| 20260905065933 | 74 | 58 | 0.0 | 0.0 | 0.00 | 0.08 | 0.00 | 98 | 1011.7 |
| 20260905065434 | 74 | 58 | 0.0 | 0.0 | 0.00 | 0.08 | 0.00 | 98 | 1011.6 |
| 20260905064933 | 73 | 58 | 0.0 | 0.0 | 0.00 | 0.08 | 0.00 | 97 | 1011.6 |
| 20260905064433 | 73 | 58 | 0.0 | 0.0 | 0.00 | 0.09 | 0.00 | 97 | 1011.6 |
| 20260905063933 | 73 | 58 | 0.0 | 0.0 | 0.00 | 0.09 | 0.00 | 97 | 1011.5 |
| 20260905063721 | 73 | 58 | 0.0 | 0.0 | 0.00 | 0.09 | 0.00 | 97 | 1011.5 |
| 20260905062933 | 73 | 58 | 0.0 | 0.0 | 0.00 | 0.09 | 0.00 | 97 | 1011.5 |
| 20260905062432 | 74 | 58 | 0.0 | 0.0 | 0.00 | 0.09 | 0.00 | 97 | 1011.6 |
| 20260905061932 | 74 | 58 | 0.0 | 0.0 | 0.00 | 0.09 | 0.00 | 97 | 1011.5 |
| 20260905061432 | 74 | 58 | 0.0 | 0.0 | 0.00 | 0.09 | 0.00 | 97 | 1011.5 |
| 20260905060932 | 74 | 58 | 0.0 | 0.0 | 0.00 | 0.09 | 0.00 | 97 | 1011.5 |
| 20260905060432 | 74 | 58 | 0.0 | 0.0 | 0.00 | 0.09 | 0.00 | 97 | 1011.5 |
| 20260905055932 | 74 | 58 | 0.0 | 0.0 | 0.00 | 0.09 | 0.00 | 97 | 1011.5 |
| 20260905055432 | 74 | 58 | 0.0 | 0.0 | 0.00 | 0.09 | 0.00 | 97 | 1011.5 |
| 20260905054933 | 74 | 58 | 0.0 | 0.0 | 0.00 | 0.09 | 0.00 | 97 | 1011.6 |
| 20260905054431 | 74 | 58 | 0.0 | 0.0 | 0.00 | 0.09 | 0.00 | 97 | 1011.6 |
| 20260905053931 | 74 | 58 | 0.0 | 0.0 | 0.00 | 0.09 | 0.00 | 97 | 1011.7 |
| 20260905053434 | 74 | 58 | 0.0 | 0.0 | 0.00 | 0.09 | 0.00 | 97 | 1011.8 |
| 20260905052931 | 74 | 58 | 0.0 | 0.0 | 0.00 | 0.09 | 0.00 | 97 | 1011.8 |
| 20260905052433 | 74 | 58 | 0.0 | 0.0 | 0.00 | 0.09 | 0.00 | 97 | 1011.7 |
| 20260905051931 | 74 | 58 | 0.0 | 0.0 | 0.00 | 0.09 | 0.00 | 97 | 1011.7 |
| 20260905051432 | 74 | 58 | 0.0 | 0.0 | 0.00 | 0.09 | 0.00 | 97 | 1011.8 |
| 20260905050931 | 74 | 58 | 0.0 | 0.0 | 0.00 | 0.09 | 0.00 | 97 | 1011.7 |
| 20260905050703 | 0 | 0.0 | 0.0 | 0.00 | 0.00 | 0.00 | 1011.8 | ||
| 20260905045525 | 74 | 58 | 0.0 | 0.0 | 0.00 | 0.09 | 0.09 | 97 | 1011.9 |
| 20260905045019 | 74 | 58 | 0.0 | 0.0 | 0.00 | 0.09 | 0.09 | 97 | 1011.9 |
| 20260905044519 | 74 | 58 | 0.0 | 0.0 | 0.00 | 0.09 | 0.09 | 97 | 1012.1 |
| 20260905044012 | 74 | 58 | 0.0 | 0.0 | 0.00 | 0.09 | 0.09 | 97 | 1012.1 |
| 20260905043510 | 75 | 58 | 0.0 | 0.0 | 0.00 | 0.09 | 0.09 | 97 | 1012.2 |
| 20260905043005 | 75 | 58 | 0.0 | 0.0 | 0.00 | 0.09 | 0.09 | 97 | 1012.3 |
| 20260905042503 | 75 | 58 | 0.0 | 0.0 | 0.00 | 0.09 | 0.09 | 97 | 1012.4 |
| 20260905042248 | 75 | 58 | 0.0 | 0.0 | 0.00 | 0.09 | 0.09 | 97 | 1012.5 |
| 20260905041504 | 75 | 58 | 0.0 | 0.0 | 0.00 | 0.09 | 0.09 | 97 | 1012.5 |
| 20260905041242 | 75 | 58 | 0.0 | 0.0 | 0.00 | 0.09 | 0.09 | 97 | 1012.6 |
| 20260905040502 | 75 | 58 | 0.0 | 0.0 | 0.00 | 0.09 | 0.09 | 97 | 1012.4 |